[[{"header":{"parameterUnit":"m.s-1","parameterCategory":1,"la1":30.2991,"la2":30.254,"lo1":-89.0895,"lo2":-89.0444,"dy":0.0017,"dx":0.0017,"nx":28,"ny":28,"refTime":"2024-11-23T09:00:00:Z","depth":0,"parameterNumber":2,"parameterNumberName":"U-component_of_WINDS"},"data":[0,0,0,0,0,0,0,0,0,0,0,0,0,0,0,0,0,0,0,0,0,0,0,0,0,0,0,0,0,0,0,0,0,0,0,0,0,0,0,0,0,0,0,0,0,0,0,0,0,0,0,0,0,0,0,0,0,0,2.6964,2.6964,0,2.6943,2.6943,2.6942,2.6872,2.687,2.6869,2.6867,2.6846,2.6847,2.6847,0,0,0,0,0,0,0,0,0,0,0,0,0,2.6945,2.6945,2.6964,2.6964,2.6964,2.6943,2.6943,2.6942,2.6872,2.687,2.6868,2.6867,2.6845,2.6846,2.6848,0,0,0,0,0,0,0,0,0,0,0,0,0,2.6941,2.6946,2.6964,2.6926,2.6923,2.6943,2.6943,2.6942,2.6873,2.687,2.6868,2.6866,2.6845,2.6846,2.6848,2.6903,0,0,2.6852,2.6852,0,0,0,0,0,0,0,0,2.6941,2.6942,2.6932,2.6929,2.6925,2.6908,2.6928,2.6929,2.6873,2.6892,2.6867,2.6865,2.6868,2.6868,2.6869,2.6902,2.6901,2.6852,2.6853,2.6853,2.6854,0,0,0,0,0,0,0,2.6942,2.6943,2.6956,2.6932,2.6928,2.691,2.6907,2.6928,2.6893,2.689,2.6885,2.6883,2.6866,2.6868,2.6868,2.6901,2.6852,2.6853,2.6854,2.6854,2.6976,2.6978,0,0,0,0,0,0,2.6947,2.6943,2.6956,2.6955,2.6928,2.6913,2.6909,2.6916,2.6893,2.6887,2.6885,2.688,2.6866,2.6866,2.6867,2.6928,2.6853,2.6854,2.6855,2.6974,2.6977,2.6979,0,0,0,0,0,0,2.6947,2.6949,2.6957,2.6948,2.6947,2.6915,2.6923,2.6916,2.6918,2.6889,2.6883,2.6893,2.6865,2.6865,2.6894,2.6926,2.6855,2.6856,2.6971,2.6975,2.6978,2.7052,0,0,0,0,0,0,2.6947,2.695,2.697,2.6949,2.6948,2.6985,2.6925,2.6918,2.692,2.6913,2.6895,2.689,2.6863,2.6892,2.6895,2.6927,2.6857,2.6968,2.6973,2.6977,2.7046,2.7058,2.7067,0,0,0,0,0,2.6947,2.6993,2.6972,2.6974,2.6974,2.6987,2.6987,2.6955,2.6923,2.6944,2.6925,2.6891,2.6923,2.6896,2.6899,2.6931,2.6966,2.6971,2.6977,2.7042,2.7055,2.7067,0,0,0,0,0,0,2.7019,2.6989,2.6966,2.7006,2.7,2.6975,2.7,2.697,2.6973,2.6966,2.6926,2.6923,2.6957,2.6947,2.6918,2.6982,2.6938,2.6945,2.6987,2.7,2.701,2.701,2.6858,0,0,0,0,0,2.704,2.7054,2.7027,2.7065,2.7063,2.7033,2.7037,2.7013,2.7005,2.7002,2.6985,2.6979,2.6987,2.6993,2.6999,2.7045,2.7039,2.7069,2.7079,2.7088,2.7093,2.7114,2.7127,2.6997,2.6997,2.6997,0,0,2.7083,2.7068,2.708,2.7079,2.7071,2.7086,2.7031,2.7049,2.7059,2.7004,2.703,2.7018,2.7008,2.7045,2.7061,2.7038,2.7128,2.7095,2.7102,2.7102,2.7121,2.7134,2.7144,2.7001,2.7,2.7,0,0,2.7168,2.7159,2.7189,2.7182,2.7171,2.715,2.7157,2.7137,2.7127,2.7152,2.7111,2.7123,2.7139,2.7132,2.7131,2.7214,2.7181,2.7217,2.7271,2.7292,2.7302,2.7311,2.7338,2.7348,2.7223,2.7223,2.7223,0,2.7223,2.7243,2.7208,2.7228,2.7229,2.718,2.7209,2.7205,2.7196,2.7197,2.7172,2.719,2.718,2.7214,2.7234,2.7236,2.7241,2.7218,2.7303,2.7312,2.732,2.7345,2.7355,2.7227,2.7227,2.7227,2.7226,0,2.7309,2.7324,2.7349,2.7341,2.7345,2.737,2.7338,2.7347,2.7322,2.7304,2.733,2.7316,2.7318,2.7325,2.7302,2.7355,2.7341,2.7311,2.7265,2.7337,2.7359,2.7369,2.7233,2.7232,2.7231,2.723,0,0,2.7438,2.741,2.742,2.7414,2.7399,2.7409,2.7432,2.7433,2.7439,2.7436,2.7452,2.7467,2.7438,2.7437,2.7413,2.7432,2.7495,2.7398,2.7398,2.7415,2.755,2.7571,2.7583,2.7474,2.7476,2.7478,2.755,0,2.7516,2.7551,2.7521,2.7562,2.7574,2.7529,2.7548,2.754,2.7524,2.7532,2.7514,2.7524,2.7486,2.7485,2.7502,2.7484,2.7521,2.7478,2.7488,2.7489,2.7489,2.7595,2.7618,2.7687,2.7559,2.7561,2.7562,0,2.7611,2.7611,2.7653,2.7633,2.7636,2.7654,2.7652,2.7661,2.7651,2.7638,2.7636,2.7607,2.7626,2.7584,2.761,2.7582,2.7584,2.7576,2.7578,2.7575,2.7528,2.7593,2.7709,2.7718,2.7576,2.7575,2.7574,0,2.7697,2.7707,2.7733,2.7731,2.7709,2.7722,2.7713,2.7701,2.7703,2.7702,2.7703,2.7704,2.7704,2.7706,2.7677,2.765,2.7706,2.7662,2.7694,2.7695,2.7706,2.7705,2.7821,2.7713,2.7713,2.7712,2.7712,0,2.7786,2.7813,2.7771,2.7787,2.7815,2.7781,2.781,2.7797,2.7786,2.7798,2.776,2.7772,2.7735,2.7743,2.7721,2.7744,2.7745,2.7734,2.7727,2.7736,2.7737,2.7735,2.7728,2.7715,2.7715,2.7714,2.7714,0,2.7885,2.7859,2.7883,2.786,2.7855,2.7877,2.7857,2.787,2.7852,2.7868,2.7869,2.7841,2.7848,2.782,2.7823,2.7808,2.7842,2.7829,2.7845,2.784,2.7873,2.7869,2.7989,2.8002,2.7889,2.789,2.7891,0,2.7942,2.7961,2.794,2.7945,2.7938,2.7947,2.7949,2.7916,2.7919,2.7909,2.7923,2.7928,2.7929,2.7943,2.7922,2.7924,2.7909,2.7951,2.7909,2.7916,2.7906,2.7904,2.7904,2.7958,2.796,2.7961,2.7962,0,2.8045,2.803,2.8034,2.8034,2.8037,2.8035,2.803,2.8037,2.8001,2.8007,2.8013,2.8015,2.8017,2.8021,2.8019,2.801,2.7979,2.7976,2.7983,2.799,2.7997,2.7991,2.7866,2.7972,2.7971,2.7971,2.797,2.797,2.8122,2.8136,2.8123,2.8129,2.8122,2.8118,2.8129,2.8112,2.8117,2.8116,2.8096,2.8107,2.8095,2.8089,2.8083,2.809,2.807,2.8081,2.8083,2.8086,2.809,2.7999,2.809,2.8089,2.8089,2.8089,2.8089,0,2.822,2.8209,2.8215,2.8209,2.8213,2.8185,2.8179,2.8184,2.8193,2.8185,2.8187,2.8194,2.8198,2.8178,2.8179,2.8188,2.8174,2.8189,2.8187,2.8184,2.8109,2.8101,2.82,2.82,2.82,2.82,2.82,2.82,2.8271,2.8293,2.8277,2.8295,2.8285,2.8294,2.8292,2.8288,2.8281,2.8291,2.8294,2.8281,2.8267,2.8267,2.8269,2.8263,2.8264,2.8283,2.8272,2.8201,2.819,2.818,2.8172,2.8284,2.8284,2.8346,2.8347,2.8347]},{"header":{"parameterUnit":"m.s-1","parameterCategory":1,"la1":30.2991,"la2":30.254,"lo1":-89.0895,"lo2":-89.0444,"dy":0.0017,"dx":0.0017,"nx":28,"ny":28,"refTime":"2024-11-23T09:00:00:Z","depth":0,"parameterNumber":3,"parameterNumberName":"V-component_of_WINDS"},"data":[0,0,0,0,0,0,0,0,0,0,0,0,0,0,0,0,0,0,0,0,0,0,0,0,0,0,0,0,0,0,0,0,0,0,0,0,0,0,0,0,0,0,0,0,0,0,0,0,0,0,0,0,0,0,0,0,0,0,4.5417,4.5419,0,4.5586,4.5588,4.559,4.5605,4.5603,4.5601,4.56,4.5771,4.5778,4.5784,0,0,0,0,0,0,0,0,0,0,0,0,0,4.5105,4.5111,4.5417,4.5419,4.5421,4.5586,4.5588,4.559,4.5605,4.5603,4.5601,4.5599,4.5769,4.5777,4.5784,0,0,0,0,0,0,0,0,0,0,0,0,0,4.5254,4.5113,4.5416,4.5448,4.5453,4.5585,4.5588,4.5591,4.5606,4.5603,4.56,4.5598,4.5767,4.5776,4.5785,4.5897,0,0,4.5814,4.5818,0,0,0,0,0,0,0,0,4.5246,4.5265,4.5442,4.5446,4.5452,4.5572,4.5541,4.5694,4.5606,4.5548,4.5599,4.5596,4.5707,4.5721,4.5759,4.5905,4.5913,4.5815,4.582,4.5824,4.5827,0,0,0,0,0,0,0,4.5235,4.5258,4.5484,4.5444,4.545,4.5454,4.5472,4.557,4.564,4.5552,4.5554,4.5574,4.5709,4.575,4.5763,4.5915,4.5815,4.5823,4.5829,4.5832,4.616,4.6163,0,0,0,0,0,0,4.5219,4.525,4.5478,4.5489,4.534,4.5461,4.5482,4.5536,4.5639,4.5653,4.5576,4.5574,4.5735,4.5752,4.5769,4.5906,4.5824,4.5833,4.5839,4.6157,4.6161,4.6164,0,0,0,0,0,0,4.5212,4.5239,4.5472,4.537,4.54,4.547,4.553,4.5541,4.5581,4.5657,4.5669,4.5604,4.5734,4.5756,4.5865,4.5912,4.5837,4.5846,4.6153,4.6158,4.6163,4.6181,0,0,0,0,0,0,4.5203,4.5237,4.5281,4.5371,4.5405,4.5565,4.5533,4.5546,4.5597,4.5596,4.5687,4.57,4.5733,4.5851,4.5874,4.5923,4.5853,4.615,4.6156,4.6161,4.6176,4.6185,4.6193,0,0,0,0,0,4.5192,4.5279,4.5283,4.531,4.5461,4.5568,4.5588,4.5625,4.5601,4.5645,4.5694,4.5697,4.5903,4.5862,4.5888,4.5941,4.6147,4.6154,4.6161,4.6172,4.6183,4.6193,0,0,0,0,0,0,4.5192,4.5291,4.5297,4.5415,4.5483,4.557,4.5627,4.5636,4.5711,4.5707,4.575,4.577,4.5877,4.592,4.5873,4.6054,4.6022,4.6035,4.6022,4.6033,4.6042,4.6029,4.5861,0,0,0,0,0,4.5206,4.5285,4.5367,4.5464,4.5498,4.5557,4.5605,4.5627,4.5699,4.5728,4.5785,4.5854,4.5934,4.5986,4.6065,4.6182,4.6202,4.6232,4.624,4.6247,4.6257,4.6321,4.6335,4.6187,4.6187,4.6187,0,0,4.5236,4.5299,4.5347,4.5466,4.5521,4.5601,4.5581,4.5667,4.5726,4.5741,4.5847,4.5891,4.5971,4.6085,4.6138,4.6124,4.6302,4.6256,4.626,4.6267,4.633,4.6344,4.6356,4.6192,4.6191,4.619,0,0,4.533,4.5387,4.5473,4.5529,4.5613,4.5651,4.5672,4.5758,4.5788,4.5895,4.5907,4.5979,4.6117,4.6173,4.6219,4.6334,4.6339,4.6358,4.6402,4.6464,4.6476,4.6487,4.6526,4.654,4.6368,4.6368,4.6368,0,4.5356,4.5478,4.5516,4.5602,4.5653,4.567,4.5757,4.5809,4.5914,4.5949,4.5932,4.6105,4.616,4.6286,4.6314,4.6352,4.6376,4.6348,4.6471,4.6482,4.6493,4.6531,4.6546,4.637,4.637,4.637,4.6369,0,4.5505,4.5589,4.5648,4.5749,4.5807,4.5893,4.5944,4.5998,4.6016,4.6056,4.6164,4.6231,4.6322,4.6354,4.6372,4.6483,4.6472,4.6463,4.6431,4.6508,4.6545,4.656,4.6372,4.6372,4.6371,4.6371,0,0,4.5604,4.5725,4.5746,4.5791,4.5885,4.595,4.6036,4.6126,4.6171,4.6243,4.6316,4.6432,4.6424,4.6476,4.6501,4.6556,4.6641,4.654,4.6542,4.6555,4.6765,4.6771,4.6787,4.6645,4.6648,4.665,4.6758,0,4.5708,4.5862,4.5899,4.6031,4.6108,4.6125,4.62,4.6265,4.6305,4.6376,4.6419,4.65,4.6484,4.6516,4.6571,4.6619,4.6683,4.6612,4.6712,4.6715,4.669,4.6807,4.6813,4.6912,4.6773,4.6776,4.6777,0,4.585,4.5925,4.6064,4.6147,4.6181,4.6247,4.6332,4.64,4.6474,4.6499,4.6557,4.6576,4.6665,4.663,4.6753,4.6703,4.6747,4.6776,4.6781,4.6791,4.675,4.6819,4.6945,4.6959,4.6801,4.6799,4.6797,0,4.5907,4.6042,4.6143,4.6182,4.6281,4.6327,4.637,4.6442,4.6493,4.6567,4.66,4.6683,4.6729,4.6792,4.6833,4.6803,4.6952,4.692,4.6974,4.6973,4.7004,4.7002,4.7137,4.7034,4.7033,4.7033,4.7033,0,4.6019,4.6103,4.617,4.6232,4.6326,4.6368,4.646,4.6503,4.6567,4.6636,4.6656,4.6722,4.6771,4.6843,4.6875,4.6972,4.6992,4.7014,4.7021,4.7012,4.7009,4.704,4.7034,4.7037,4.7036,4.7035,4.7035,0,4.6098,4.6146,4.6257,4.6342,4.6365,4.6431,4.6503,4.6563,4.6603,4.6691,4.6714,4.6776,4.6862,4.6908,4.7016,4.7037,4.7144,4.7149,4.712,4.7123,4.7173,4.7167,4.7333,4.7357,4.7238,4.7239,4.724,0,4.6166,4.6231,4.6322,4.6371,4.6415,4.6493,4.6545,4.6588,4.6641,4.673,4.6779,4.6866,4.6937,4.7073,4.7127,4.7209,4.7214,4.7267,4.7227,4.7215,4.7214,4.7209,4.7215,4.7274,4.7275,4.7276,4.7276,0,4.628,4.6301,4.6376,4.6459,4.6521,4.6588,4.6655,4.6693,4.6747,4.6806,4.6894,4.6949,4.7058,4.7144,4.723,4.7273,4.7284,4.7289,4.7305,4.7296,4.7276,4.7286,4.7138,4.7284,4.7284,4.7283,4.7283,4.7282,4.6355,4.6414,4.6487,4.6569,4.6624,4.6686,4.6746,4.6793,4.6867,4.696,4.6981,4.7073,4.7144,4.726,4.7307,4.7379,4.7368,4.7393,4.7399,4.7404,4.7405,4.7265,4.7395,4.7394,4.7394,4.7394,4.7394,0,4.647,4.6518,4.6593,4.6686,4.6751,4.6755,4.6829,4.6882,4.6963,4.7029,4.7099,4.7199,4.7282,4.7343,4.7427,4.7473,4.7479,4.7493,4.749,4.75,4.741,4.7387,4.7486,4.7486,4.7486,4.7486,4.7486,4.7486,4.6537,4.6636,4.6665,4.679,4.6838,4.6928,4.697,4.7027,4.7079,4.719,4.7259,4.7298,4.7362,4.7451,4.7526,4.7542,4.7572,4.7585,4.7601,4.7516,4.7506,4.7497,4.7475,4.7591,4.7591,4.7684,4.7685,4.7686]}]]